Вернуться в каталог

STARLINK-36384

АктивенСвязьSSO
NORAD 67597·PAYLOAD·🇺🇸 United States

Запущен Jan 29, 2026 с Vandenberg Space Force Base

Loading…

Ближайшие Пролёты (ближайшие 24 часа)

TLE

СвежийSource: CelesTrak SupGP

Эпоха: Sep 14, 2026, 21:25 UTC

1 67597C 26018J   26257.89284722 -.00020855  00000+0 -64751-3 0  2579
2 67597  97.2847 321.4836 0000898  91.6087 293.4296 15.33444313    13

Отслеживайте STARLINK-36384 в реальном времени с AllMySat

Download on the App Store